Home > Weather > Clarington > Past weeks

Flag for Canada Weather for the Past 2 Weeks in Clarington, Ontario, Canada

Now
23 °F

Overcast.


Feels Like: 8 °F
Forecast: 8 / 24 °F
Wind: 20 mph from Southwest

Location: Peterborough Airport

Current Time: Feb 12, 2016 at 12:19:20 PM

Latest Report: Feb 12, 2016 at 12:00 PM


Visibility: 9 mi

Pressure: 29.89 "Hg

Humidity: 58%

Dew point: 10 °F

Location of ClaringtonLocation

Historic Weather in Clarington — Graph

°F

Clarington Temperature Yesterday

Maximum temperature yesterday: 10 °F (at 12:00 AM)
Minimum temperature yesterday: -2 °F (at 6:59 AM)
Average temperature yesterday: 4 °F

High & Low Weather Summary for the Past Weeks

 TemperatureHumidityPressure
High54 °F (Feb 3, 4:00 PM)100% (Jan 28, 7:00 PM)30.38 "Hg (Jan 28, 7:00 PM)
Low-2 °F (Feb 11, 6:59 AM)51% (Feb 11, 3:00 PM)29.42 "Hg (Feb 1, 1:00 AM)
Average28 °F81%29.86 "Hg
* Reported Jan 28 11:00 AM — Feb 12 11:00 AM, Clarington, Weather by CustomWeather, © 2016

Note: Actual official high and low records may vary slightly from our data, if they occured in-between our weather recording intervals... More about our weather records

Advertising

Clarington Weather History for the Previous 24 Hours

 ConditionsComfort  
Time TempWeatherWind HumidityBarometerVisibility
11:00 AM
Fri, Feb 12
21 °FOvercast.12 mph63%29.92 "Hg9 mi
10:00 AM19 °FOvercast.10 mph63%29.94 "Hg9 mi
9:00 AM18 °FOvercast.12 mph62%29.97 "Hg9 mi
8:00 AM14 °FScattered clouds.12 mph73%30.00 "Hg9 mi
7:00 AM12 °FClear.8 mph79%30.02 "Hg9 mi
6:00 AM12 °FClear.7 mph79%30.03 "Hg9 mi
5:00 AM12 °FPassing clouds.9 mph79%30.05 "Hg9 mi
4:00 AM12 °FClear.9 mph79%30.06 "Hg9 mi
3:00 AM12 °FLight snow. Passing clouds.8 mph79%30.09 "Hg9 mi
2:01 AM3 °FLight snow. Overcast.5 mph92%30.13 "Hg9 mi
1:00 AM3 °FPassing clouds.3 mph85%30.16 "Hg9 mi
12:00 AM3 °FPassing clouds.5 mph85%30.19 "Hg9 mi
11:00 PM
Thu, Feb 11
1 °FClear.6 mph85%30.20 "Hg9 mi
10:00 PM1 °FClear.No wind85%30.20 "Hg9 mi
9:00 PM3 °FClear.3 mph78%30.20 "Hg9 mi
8:00 PM5 °FClear.8 mph72%30.19 "Hg9 mi
7:00 PM5 °FClear.10 mph66%30.18 "Hg9 mi
6:00 PM5 °FClear.13 mph60%30.16 "Hg9 mi
5:00 PM7 °FSunny.16 mph61%30.13 "Hg9 mi
4:00 PM9 °FSunny.18 mph51%30.11 "Hg9 mi
3:00 PM9 °FSunny.18 mph51%30.08 "Hg9 mi
2:00 PM7 °FSunny.18 mph56%30.07 "Hg9 mi
1:00 PM7 °FSunny.16 mph56%30.06 "Hg9 mi
12:00 PM3 °FSunny.15 mph60%30.06 "Hg9 mi
Weather by CustomWeather, © 2016

See weather overviewHow to use our weather pages